Regional Weather Roundup
Issued by NWS San Angelo, TX

Home | Current Version | Previous Version | Text Only | Print | Product List | Glossary On
Versions: 1 2 3 4 5 6 7 8 9 10 11 12 13 14 15 16 17 18 19 20 21 22 23 24 25 26 27 28 29 30 31 32 33 34 35 36 37 38 39 40 41 42 43 44 45 46 47 48 49 50
858
ASUS44 KSJT 200210
RWRSJT
WEST CENTRAL TEXAS REGIONAL WEATHER ROUNDUP
NATIONAL WEATHER SERVICE SAN ANGELO TX
800 PM CST THU JAN 19 2017

NOTE: "FAIR" INDICATES FEW OR NO CLOUDS BELOW 12,000 FEET WITH NO
SIGNIFICANT WEATHER AND/OR OBSTRUCTIONS TO VISIBILITY.

TXZ049-054-064>066-071>073-076>078-098-099-113-114-127-128-139-140-
154-155-168>170-200300
...LOCATIONS ACROSS WEST CENTRAL TEXAS...

CITY           SKY/WX    TMP DP  RH WIND       PRES   REMARKS
SAN ANGELO     MOCLDY    61  31  32 SW14      29.71R
ABILENE        CLOUDY    57  36  45 SW10      29.64S
DYESS AFB      PTCLDY    56  31  38 S10       29.63S
JUNCTION       CLEAR     58  40  51 CALM      29.73R
SWEETWATER     CLEAR     56  37  49 SW12      29.68R
BROWNWOOD      PTCLDY    55  39  54 S6        29.69R
COLEMAN        CLEAR     57  37  47 SW9       29.68R
SONORA         CLEAR     59  32  36 SW6       29.79S
OZONA          FAIR      59  32  36 MISG      29.78R
BRADY          NOT AVBL
$$

TEXAS PANHANDLE/OKLAHOMA PANHANDLE

CITY           SKY/WX    TMP DP  RH WIND       PRES   REMARKS
AMARILLO       CLEAR     41  28  60 E7        29.56S WCI  36
BORGER         CLOUDY    41  36  82 NE8       29.56F WCI  36
CANADIAN       CLEAR     35  33  94 SW5       29.58S WCI  31
DALHART        CLOUDY    42  29  59 E6        29.56R WCI  38
DUMAS          CLOUDY    38  34  87 E6        29.56S WCI  33
GUYMON         NOT AVBL
HEREFORD       CLOUDY    50  31  48 W17       29.59R
PAMPA          CLOUDY    35  33  91 E7        29.57F WCI  30
PERRYTON       NOT AVBL
$$

SOUTHERN PANHANDLE/SOUTH PLAINS/ROLLING PLAINS

CITY           SKY/WX    TMP DP  RH WIND       PRES   REMARKS
LUBBOCK        CLOUDY    49  31  49 W14       29.62S
SNYDER         CLEAR     51  37  57 SW14      29.66R
CHILDRESS      CLEAR     52  35  52 E5        29.55F
SEMINOLE       CLOUDY    51  32  47 W12       29.70F
$$

PERMIAN BASIN

CITY           SKY/WX    TMP DP  RH WIND       PRES   REMARKS
MIDLAND        CLEAR     56  31  38 SW18      29.71R
ODESSA         CLEAR     55  29  36 W17       29.73R
WINK           CLOUDY    57  28  33 W15       29.75R
$$

FAR WEST/SOUTHWEST MOUNTAINS/TRANS PECOS

CITY           SKY/WX    TMP DP  RH WIND       PRES   REMARKS
ALPINE         CLEAR     43  25  48 SW5       29.91F
DRYDEN           N/A     57  31  37 W8        29.77R
EL PASO        CLOUDY    53  26  35 W12G28    29.85R
FORT STOCKTON  CLEAR     55  25  31 W13       29.79R
GUADALUPE PASS NOT AVBL
MARFA          CLEAR     44  23  43 SW5       29.88F
PECOS          CLEAR     55  28  36 SW6       29.79S
$$

DALLAS/FORT WORTH METROPLEX

CITY           SKY/WX    TMP DP  RH WIND       PRES   REMARKS
DFW AIRPORT    PTCLDY    59  53  80 S13       29.63R
FTW MEACHAM    CLEAR     58  52  80 S12       29.62R
DAL-EXECUTIVE  CLEAR     57  53  86 S8G20     29.64S
GRAND PRAIRIE  CLEAR     57  51  81 S8        29.65S
ADDISON        CLEAR     59  54  82 S12G23    29.64S
MESQUITE       CLEAR     54  52  94 SE8       29.66S
LANCASTER      CLEAR     55  51  87 S10       29.67S
$$

NORTH CENTRAL TEXAS

CITY           SKY/WX    TMP DP  RH WIND       PRES   REMARKS
SHRMAN/DENISON CLEAR     55  52  90 S14       29.63R
GAINESVILLE    CLEAR     53  49  87 SE7       29.62F
BRIDGEPORT     CLEAR     60  41  49 S7        29.62S
DENTON         CLEAR     57  53  86 S10       29.61S
WAXAHACHIE     CLEAR     55  55  97 S14G21    29.67S
GRANBURY       PTCLDY    58  43  57 S7        29.65R
$$

WESTERN NORTH TEXAS

CITY           SKY/WX    TMP DP  RH WIND       PRES   REMARKS
WICHITA FALLS  CLEAR     53  37  54 SW9       29.55S
VERNON         CLEAR     56  36  47 CALM      29.56S
BRECKENRIDGE   CLEAR     58  38  47 SW10      29.61S
COMANCHE       CLEAR     57  43  59 SW8       29.67R
$$

CENTRAL AND SOUTH CENTRAL TEXAS

CITY           SKY/WX    TMP DP  RH WIND       PRES   REMARKS
AUSTIN/BERGSTM CLEAR     59  55  87 S9        29.72R
WACO           CLEAR     57  54  89 S12       29.68S
HILLSBORO      CLEAR     57  54  89 S15       29.67S
TEMPLE         CLEAR     58  55  90 S15       29.69S
KILLEEN-GRAY   CLEAR     63  43  47 SW10      29.68S
FORT HOOD      CLEAR     55  53  90 S6        29.66R
GEORGETOWN     NOT AVBL
LAGO VISTA     FAIR      63  54  72 SW6       29.73R
SAN MARCOS     CLEAR     57  54  88 S6        29.74R
NEW BRAUNFELS  CLEAR     58  52  80 SW8       29.72S
RANDOLPH AFB   CLEAR     61  54  77 S6        29.74R
SAN ANTONIO    PTCLDY    64  48  56 S7        29.74S
STINSON        CLEAR     60  51  72 SW3       29.73R
PLEASANTON     NOT AVBL
LA GRANGE      CLEAR     59  58  97 S6        29.73F
GIDDINGS       CLEAR     55  54  95 SE3       29.74F
$$

EAST TEXAS

CITY           SKY/WX    TMP DP  RH WIND       PRES   REMARKS
PARIS          CLEAR     48  46  93 SE9       29.67S
CLARKSVILLE    NOT AVBL
TYLER          MOCLDY    55  53  93 S12       29.70S
LONGVIEW       CLEAR     55  54  96 S10       29.71R
PALESTINE      CLEAR     56  55  95 S6        29.74S
NACOGDOCHES    CLOUDY    59  55  88 S3        29.74S
$$

TEXAS HILL COUNTRY AND EDWARDS PLATEAU

CITY           SKY/WX    TMP DP  RH WIND       PRES   REMARKS
LLANO          CLEAR     57  43  58 SW6       29.73S
HORSESHOE BAY  FAIR      53  44  69 S5        29.71S
KERRVILLE      CLEAR     52  44  72 CALM      29.75R
FREDERICKSBRG  CLEAR     50  38  63 W3        29.73S
ROCKSPRINGS    CLEAR     59  39  47 W6        29.79S
HONDO          CLEAR     60  47  61 SW7       29.75R
UVALDE         CLEAR     56  47  71 CALM      29.76R
DEL RIO        CLEAR     61  46  57 CALM      29.74R
$$

SOUTHEAST TEXAS

CITY           SKY/WX    TMP DP  RH WIND       PRES   REMARKS
COLLEGE STN    PTCLDY    59  57  93 S8        29.74S
CALDWELL       NOT AVBL
CROCKETT       MOCLDY    57  55  94 S7        29.76F
BRENHAM        CLEAR     60  59  96 S5        29.76S
HUNTSVILLE     PTCLDY    60  56  86 S10       29.74F
CONROE         CLOUDY    61  58  90 SW6       29.78R
HOUSTON BUSH   CLOUDY    63  59  87 SW3       29.77S
HOUSTON HOBBY  CLOUDY    65  60  84 S6        29.77S
PERLAND        CLOUDY    66  61  84 S7        29.79S
WHARTON        CLEAR     59  57  94 S3        29.79S FOG
$$

THE UPPER TEXAS COAST

CITY           SKY/WX    TMP DP  RH WIND       PRES   REMARKS
ORANGE         CLOUDY    64  64 100 CALM      29.80S
PORT ARTHUR    CLOUDY    63  60  90 S3        29.78R
GALVESTON      CLOUDY    67  64  90 S9        29.79S
ANGLETON       MOCLDY    64  62  93 S3        29.79S
BAY CITY       PTCLDY    63  61  93 S3        29.79F
$$

TEXAS COASTAL BEND, RIO GRANDE PLAINS DEEP SOUTH TEXAS

CITY           SKY/WX    TMP DP  RH WIND       PRES   REMARKS
VICTORIA       CLEAR     60  58  92 S8        29.77S
BEEVILLE       FAIR      63  63 100 SE6       29.77R
ROCKPORT       CLEAR     62  59  90 S6        29.78S
PORT ARANSAS   MOCLDY    62  60  93 S6        29.79S
PORT LAVACA    CLEAR     60  60 100 CALM      29.79R
CORPUS CHRISTI PTCLDY    60  59  96 SE9       29.78S
KINGSVILLE NAS PTCLDY    61  61 100 S8        29.78S
COTULLA        CLEAR     64  49  57 E5        29.73S
LAREDO         CLEAR     70  53  54 S12       29.75R
BROWNSVILLE    MOCLDY    63  61  93 SE5       29.81R
PORT ISABEL    CLOUDY    62  61  96 E5        29.80R
HEBBRONVILLE   CLEAR     63  58  83 S6        29.77F
MCALLEN        CLOUDY    66  62  87 CALM      29.80R FOG
WESLACO        CLOUDY    63  61  94 CALM      29.79S FOG
FALFURRIAS     CLEAR     62  59  92 SE7       29.78S
EDINBURG       CLOUDY    66  62  85 SE6       29.80R FOG
$$




USA.gov is the U.S. government's official web portal to all federal, state and local government web resources and services.